FW6259 Weather Reports


time (UTC)temp
F
wind
direction
speed
knots
gust
knots
rain 1hr
in
rain 24hr
in
rain mn
in
humidity
%
barometer
mb
20260506224601 48 147 6.1 12.2 0.00 0.00 0.00 57 1014.8
20260506223102 47 217 5.2 16.5 0.00 0.00 0.00 61 1014.8
20260506221603 47 229 5.2 11.3 0.00 0.00 0.00 62 1014.9
20260506220047 47 148 6.1 14.8 0.00 0.00 0.00 61 1015.0
20260506214503 47 146 4.3 11.3 0.00 0.00 0.00 65 1014.9
20260506213056 46 181 7.8 15.6 0.00 0.00 0.00 66 1015.0
20260506211550 45 237 6.1 13.9 0.00 0.00 0.00 67 1014.9
20260506210046 45 181 4.3 13.9 0.00 0.00 0.00 69 1015.1
20260506204503 44 153 8.7 15.6 0.00 0.00 0.00 74 1015.1
20260506203055 42 140 4.3 11.3 0.00 0.00 0.00 79 1015.1
20260506201550 41 165 5.2 12.2 0.00 0.00 0.00 79 1015.2
20260506200148 41 262 5.2 13.0 0.00 0.00 0.00 80 1015.1
20260506194609 41 210 4.3 13.0 0.00 0.00 0.00 80 1014.9
20260506193047 41 172 7.0 15.6 0.00 0.00 0.00 78 1014.8
20260506191503 41 221 5.2 8.7 0.00 0.00 0.00 81 1014.6
20260506190056 40 247 7.0 12.2 0.00 0.00 0.00 82 1014.7
20260506184553 40 235 4.3 9.6 0.00 0.00 0.00 83 1014.7
20260506183003 40 262 6.1 10.4 0.00 0.00 0.00 82 1014.6
20260506181502 40 245 4.3 10.4 0.00 0.00 0.00 82 1014.5
20260506180053 40 237 4.3 8.7 0.00 0.00 0.00 83 1014.5
20260506174549 40 263 4.3 7.8 0.00 0.00 0.00 82 1014.6
20260506173124 40 228 4.3 8.7 0.00 0.00 0.00 81 1014.6
20260506171600 40 235 4.3 7.8 0.00 0.00 0.00 81 1014.6
20260506170049 40 198 2.6 9.6 0.00 0.00 0.00 80 1014.6
20260506164545 40 198 4.3 9.6 0.00 0.00 0.00 79 1014.4
20260506163103 40 270 3.5 11.3 0.00 0.00 0.00 80 1014.3
20260506161559 40 168 2.6 10.4 0.00 0.00 0.00 80 1014.1
20260506160144 39 247 2.6 8.7 0.00 0.00 0.00 80 1014.1
20260506154558 39 185 2.6 7.0 0.00 0.01 0.00 82 1014.1
20260506153052 38 274 2.6 7.8 0.00 0.01 0.00 83 1014.0
20260506151545 38 141 3.5 10.4 0.00 0.01 0.00 83 1014.1
20260506150043 38 219 3.5 10.4 0.00 0.01 0.00 83 1013.9
20260506144557 38 229 4.3 11.3 0.00 0.01 0.00 83 1013.9
20260506143047 38 169 4.3 11.3 0.00 0.01 0.00 83 1013.8
20260506141502 38 181 3.5 8.7 0.00 0.01 0.00 81 1013.6
20260506140052 38 162 3.5 11.3 0.00 0.01 0.00 82 1013.5
20260506134516 38 204 4.3 10.4 0.00 0.01 0.00 81 1013.4
20260506133100 38 210 2.6 9.6 0.00 0.01 0.00 80 1013.3
20260506131607 38 255 2.6 12.2 0.00 0.01 0.00 80 1013.1
20260506130045 38 179 3.5 7.0 0.00 0.01 0.00 79 1013.0
20260506124609 38 221 3.5 9.6 0.00 0.04 0.00 79 1012.9
20260506123049 39 207 3.5 12.2 0.00 0.04 0.00 79 1013.0
20260506121504 39 184 7.0 17.4 0.00 0.04 0.00 78 1012.9
20260506114649 39 155 3.5 7.0 0.00 0.04 0.00 77 1012.7
20260506113047 39 222 2.6 11.3 0.00 0.04 0.00 77 1012.7
20260506111659 39 216 0.9 10.4 0.00 0.04 0.00 77 1012.6
20260506110053 39 115 2.6 11.3 0.00 0.04 0.00 78 1012.6
20260506104547 39 210 4.3 10.4 0.00 0.04 0.00 78 1012.5
20260506103107 39 178 4.3 9.6 0.00 0.04 0.00 79 1012.6
20260506101551 39 224 1.7 12.2 0.00 0.04 0.00 79 1012.4
20260506100048 38 194 4.3 7.8 0.00 0.04 0.00 80 1012.3
20260506094559 38 198 4.3 8.7 0.00 0.04 0.00 81 1012.1
20260506093054 39 217 2.6 9.6 0.00 0.04 0.00 81 1012.2
20260506091551 39 165 3.5 12.2 0.00 0.04 0.00 80 1012.2
20260506090059 39 169 3.5 9.6 0.00 0.04 0.00 80 1011.9
20260506084601 39 243 1.7 8.7 0.00 0.04 0.00 81 1011.8
20260506083108 39 229 0.9 7.8 0.00 0.04 0.00 83 1011.5
20260506081502 39 154 6.1 11.3 0.00 0.04 0.00 83 1011.5
20260506073100 39 174 4.3 12.2 0.00 0.05 0.04 83 1011.4
20260506071557 39 194 4.3 13.0 0.00 0.05 0.04 81 1011.4
20260506061548 38 160 4.3 9.6 0.00 0.07 0.04 83 1011.2
20260506050105 40 195 0.9 5.2 0.00 0.09 0.04 83 1010.5
20260506044553 40 146 0.0 5.2 0.00 0.10 0.04 82 1010.3
20260506043044 41 137 0.9 5.2 0.00 0.10 0.04 81 1010.2
20260506041616 41 159 0.9 4.3 0.00 0.10 0.04 79 1010.3
20260506040050 41 205 1.7 7.0 0.00 0.10 0.04 78 1010.2
20260506034554 41 200 0.9 6.1 0.00 0.17 0.04 78 1010.1
20260506033040 42 248 3.5 8.7 0.00 0.17 0.04 77 1010.1
20260506031600 42 223 1.7 7.0 0.00 0.17 0.04 77 1010.1
20260506030049 42 221 2.6 8.7 0.00 0.17 0.04 76 1010.0
20260506024505 43 203 2.6 7.0 0.00 0.23 0.04 74 1009.8
20260506023055 43 262 1.7 8.7 0.00 0.23 0.04 73 1009.8
20260506021549 43 204 4.3 9.6 0.00 0.23 0.04 72 1009.8
20260506020109 43 224 4.3 11.3 0.00 0.23 0.04 73 1009.6
20260506014608 42 248 6.1 12.2 0.00 0.25 0.04 74 1009.6
20260506013104 42 236 7.0 13.9 0.00 0.25 0.04 75 1009.7
20260506011617 42 236 8.7 15.6 0.00 0.25 0.04 75 1009.6
20260506010048 43 217 6.1 13.0 0.00 0.25 0.04 75 1009.6
20260506004606 44 242 4.3 15.6 0.00 0.25 0.04 73 1009.4
20260506003052 45 247 7.0 13.0 0.00 0.25 0.04 69 1009.4
20260506001547 46 200 4.3 15.6 0.00 0.25 0.04 66 1009.3
20260506000119 46 250 7.0 15.6 0.00 0.25 0.04 64 1009.1
20260505234554 46 225 3.5 14.8 0.00 0.27 0.04 64 1008.9
20260505233055 47 238 7.0 12.2 0.00 0.27 0.04 62 1008.9
20260505231506 46 213 6.1 11.3 0.00 0.27 0.04 61 1009.0